Time,TemperatureF,DewpointF,PressureIn,WindDirection,WindDirectionDegrees,WindSpeedMPH,WindSpeedGustMPH,Humidity,HourlyPrecipIn,Conditions,Clouds,dailyrainin,SolarRadiationWatts/m^2,SoftwareType,DateUTC
2013-03-21 00:00:00,23.0,13.0,30.01,West,275,0.0,1.0,65,0.00,,,0.00,0,Wunderground v.1.15,2013-03-21 04:00:00,
2013-03-21 00:01:00,23.0,13.0,30.01,West,275,0.0,1.0,65,0.00,,,0.00,0,Wunderground v.1.15,2013-03-21 04:01:00,
2013-03-21 00:02:00,23.0,13.0,30.01,West,275,0.0,1.0,65,0.00,,,0.00,0,Wunderground v.1.15,2013-03-21 04:02:00,
2013-03-21 00:03:00,23.0,13.0,30.01,West,275,0.0,1.0,65,0.00,,,0.00,0,Wunderground v.1.15,2013-03-21 04:03:00,
2013-03-21 00:08:00,23.0,13.0,30.01,West,275,0.0,1.0,65,0.00,,,0.00,0,Wunderground v.1.15,2013-03-21 04:08:00,
2013-03-21 00:14:00,23.0,13.0,30.01,West,275,1.0,1.0,65,0.00,,,0.00,0,Wunderground v.1.15,2013-03-21 04:14:00,
2013-03-21 00:20:00,23.0,13.3,30.01,West,275,1.0,1.0,66,0.00,,,0.00,0,Wunderground v.1.15,2013-03-21 04:20:00,
2013-03-21 00:25:00,23.1,13.1,30.01,West,275,2.0,2.0,65,0.00,,,0.00,0,Wunderground v.1.15,2013-03-21 04:25:00,
2013-03-21 00:30:00,23.2,13.2,30.01,WSW,257,2.0,2.0,65,0.00,,,0.00,0,Wunderground v.1.15,2013-03-21 04:30:00,
2013-03-21 00:35:00,23.3,13.3,30.01,WNW,284,2.0,3.0,65,0.00,,,0.00,0,Wunderground v.1.15,2013-03-21 04:35:00,
2013-03-21 00:41:00,23.3,13.6,30.01,West,281,5.0,5.0,66,0.00,,,0.00,0,Wunderground v.1.15,2013-03-21 04:41:00,
2013-03-21 00:47:00,23.2,13.5,30.00,West,281,0.0,5.0,66,0.00,,,0.00,0,Wunderground v.1.15,2013-03-21 04:47:00,
2013-03-21 00:53:00,23.2,13.5,30.01,WSW,254,2.0,2.0,66,0.00,,,0.00,0,Wunderground v.1.15,2013-03-21 04:53:00,
2013-03-21 00:58:00,23.3,13.6,30.01,WNW,294,3.0,3.0,66,0.00,,,0.00,0,Wunderground v.1.15,2013-03-21 04:58:00,
2013-03-21 01:03:00,23.4,13.4,30.00,West,275,3.0,4.0,65,0.00,,,0.00,0,Wunderground v.1.15,2013-03-21 05:03:00,
2013-03-21 01:09:00,23.4,13.4,30.00,West,275,1.0,4.0,65,0.00,,,0.00,0,Wunderground v.1.15,2013-03-21 05:09:00,
2013-03-21 01:15:00,23.4,13.4,30.00,West,275,5.0,5.0,65,0.00,,,0.00,0,Wunderground v.1.15,2013-03-21 05:15:00,
2013-03-21 01:20:00,23.3,13.3,30.00,West,264,3.0,3.0,65,0.00,,,0.00,0,Wunderground v.1.15,2013-03-21 05:20:00,
2013-03-21 01:26:00,23.3,12.9,30.00,West,279,1.0,8.0,64,0.00,,,0.00,0,Wunderground v.1.15,2013-03-21 05:26:00,
2013-03-21 01:31:00,23.4,13.0,30.00,West,279,3.0,4.0,64,0.00,,,0.00,0,Wunderground v.1.15,2013-03-21 05:31:00,
2013-03-21 01:37:00,23.4,14.0,30.00,NW,318,1.0,4.0,67,0.00,,,0.00,0,Wunderground v.1.15,2013-03-21 05:37:00,
2013-03-21 01:43:00,23.0,15.0,30.00,NNW,333,2.0,3.0,71,0.00,,,0.00,0,Wunderground v.1.15,2013-03-21 05:43:00,
2013-03-21 01:49:00,22.7,15.3,30.00,WNW,285,2.0,3.0,73,0.00,,,0.00,0,Wunderground v.1.15,2013-03-21 05:49:00,
2013-03-21 01:55:00,22.5,15.5,30.00,WNW,285,2.0,2.0,74,0.00,,,0.00,0,Wunderground v.1.15,2013-03-21 05:55:00,
2013-03-21 02:03:00,22.4,15.4,30.00,WNW,285,1.0,2.0,74,0.00,,,0.00,0,Wunderground v.1.15,2013-03-21 06:03:00,
2013-03-21 02:08:00,22.4,15.1,30.00,West,279,2.0,4.0,73,0.00,,,0.00,0,Wunderground v.1.15,2013-03-21 06:08:00,
2013-03-21 02:13:00,22.5,14.8,30.00,West,279,1.0,4.0,72,0.00,,,0.00,0,Wunderground v.1.15,2013-03-21 06:13:00,
2013-03-21 02:18:00,22.6,14.9,30.00,WNW,284,3.0,4.0,72,0.00,,,0.00,0,Wunderground v.1.15,2013-03-21 06:18:00,
2013-03-21 02:23:00,22.6,14.9,30.00,West,265,1.0,9.0,72,0.00,,,0.00,0,Wunderground v.1.15,2013-03-21 06:23:00,
2013-03-21 02:28:00,22.6,14.6,30.00,WNW,300,2.0,9.0,71,0.00,,,0.00,0,Wunderground v.1.15,2013-03-21 06:28:00,
2013-03-21 02:33:00,22.5,13.9,30.00,WNW,289,0.0,4.0,69,0.00,,,0.00,0,Wunderground v.1.15,2013-03-21 06:33:00,
2013-03-21 02:38:00,22.7,14.4,30.00,NW,324,6.0,6.0,70,0.00,,,0.00,0,Wunderground v.1.15,2013-03-21 06:38:00,
2013-03-21 02:43:00,22.2,15.2,30.00,NW,307,3.0,5.0,74,0.00,,,0.00,0,Wunderground v.1.15,2013-03-21 06:43:00,
2013-03-21 02:48:00,21.8,15.4,30.00,WNW,285,1.0,5.0,76,0.00,,,0.00,0,Wunderground v.1.15,2013-03-21 06:48:00,
2013-03-21 02:53:00,21.6,15.5,30.00,WNW,285,2.0,2.0,77,0.00,,,0.00,0,Wunderground v.1.15,2013-03-21 06:53:00,
2013-03-21 02:58:00,21.5,15.4,29.99,West,281,3.0,5.0,77,0.00,,,0.00,0,Wunderground v.1.15,2013-03-21 06:58:00,
2013-03-21 03:03:00,21.6,15.2,29.99,West,281,1.0,4.0,76,0.00,,,0.00,0,Wunderground v.1.15,2013-03-21 07:03:00,
2013-03-21 03:08:00,21.7,15.0,29.99,WNW,283,5.0,12.0,75,0.00,,,0.00,0,Wunderground v.1.15,2013-03-21 07:08:00,
2013-03-21 03:14:00,21.7,14.7,29.99,WNW,284,1.0,6.0,74,0.00,,,0.00,0,Wunderground v.1.15,2013-03-21 07:14:00,
2013-03-21 03:18:00,21.8,14.8,29.99,WNW,284,1.0,6.0,74,0.00,,,0.00,0,Wunderground v.1.15,2013-03-21 07:18:00,
2013-03-21 03:24:00,21.9,14.6,29.99,West,276,1.0,2.0,73,0.00,,,0.00,0,Wunderground v.1.15,2013-03-21 07:24:00,
2013-03-21 03:29:00,21.8,14.2,29.99,WNW,284,2.0,5.0,72,0.00,,,0.00,0,Wunderground v.1.15,2013-03-21 07:29:00,
2013-03-21 03:34:00,21.8,13.8,29.99,West,261,5.0,5.0,71,0.00,,,0.00,0,Wunderground v.1.15,2013-03-21 07:34:00,
2013-03-21 03:39:00,21.8,13.8,29.99,WNW,286,3.0,8.0,71,0.00,,,0.00,0,Wunderground v.1.15,2013-03-21 07:39:00,
2013-03-21 03:44:00,21.8,13.8,29.99,WNW,293,2.0,7.0,71,0.00,,,0.00,0,Wunderground v.1.15,2013-03-21 07:44:00,
2013-03-21 03:49:00,21.7,13.7,29.98,WNW,292,1.0,7.0,71,0.00,,,0.00,0,Wunderground v.1.15,2013-03-21 07:49:00,
2013-03-21 03:54:00,21.7,13.7,29.98,WNW,285,3.0,6.0,71,0.00,,,0.00,0,Wunderground v.1.15,2013-03-21 07:54:00,
2013-03-21 03:59:00,21.6,14.0,29.98,West,270,1.0,6.0,72,0.00,,,0.00,0,Wunderground v.1.15,2013-03-21 07:59:00,
2013-03-21 04:04:00,21.5,14.5,29.98,West,270,1.0,4.0,74,0.00,,,0.00,0,Wunderground v.1.15,2013-03-21 08:04:00,
2013-03-21 04:09:00,21.5,14.8,29.98,West,270,0.0,4.0,75,0.00,,,0.00,0,Wunderground v.1.15,2013-03-21 08:09:00,
2013-03-21 04:14:00,21.5,14.8,29.98,West,270,1.0,2.0,75,0.00,,,0.00,0,Wunderground v.1.15,2013-03-21 08:14:00,
2013-03-21 04:19:00,21.5,14.8,29.98,West,270,0.0,2.0,75,0.00,,,0.00,0,Wunderground v.1.15,2013-03-21 08:19:00,
2013-03-21 04:24:00,21.5,15.1,29.97,West,270,0.0,2.0,76,0.00,,,0.00,0,Wunderground v.1.15,2013-03-21 08:24:00,
2013-03-21 04:29:00,21.4,15.0,29.97,West,270,0.0,2.0,76,0.00,,,0.00,0,Wunderground v.1.15,2013-03-21 08:29:00,
2013-03-21 04:34:00,21.3,15.2,29.97,West,270,0.0,0.0,77,0.00,,,0.00,0,Wunderground v.1.15,2013-03-21 08:34:00,
2013-03-21 04:39:00,21.2,15.4,29.96,West,270,0.0,1.0,78,0.00,,,0.00,0,Wunderground v.1.15,2013-03-21 08:39:00,
2013-03-21 04:44:00,21.3,15.5,29.96,West,270,0.0,3.0,78,0.00,,,0.00,0,Wunderground v.1.15,2013-03-21 08:44:00,
2013-03-21 04:49:00,21.3,15.2,29.97,West,270,3.0,3.0,77,0.00,,,0.00,0,Wunderground v.1.15,2013-03-21 08:49:00,
2013-03-21 04:54:00,21.3,14.6,29.96,West,270,2.0,3.0,75,0.00,,,0.00,0,Wunderground v.1.15,2013-03-21 08:54:00,
2013-03-21 04:59:00,21.3,14.0,29.96,West,273,1.0,3.0,73,0.00,,,0.00,0,Wunderground v.1.15,2013-03-21 08:59:00,
2013-03-21 05:04:00,21.4,13.8,29.96,West,269,3.0,6.0,72,0.00,,,0.00,0,Wunderground v.1.15,2013-03-21 09:04:00,
2013-03-21 05:09:00,21.4,13.5,29.96,West,271,2.0,6.0,71,0.00,,,0.00,0,Wunderground v.1.15,2013-03-21 09:09:00,
2013-03-21 05:14:00,21.3,13.4,29.96,West,281,0.0,5.0,71,0.00,,,0.00,0,Wunderground v.1.15,2013-03-21 09:14:00,
2013-03-21 05:19:00,21.3,13.7,29.96,West,281,1.0,5.0,72,0.00,,,0.00,0,Wunderground v.1.15,2013-03-21 09:19:00,
2013-03-21 05:24:00,21.3,13.7,29.96,WNW,295,2.0,7.0,72,0.00,,,0.00,0,Wunderground v.1.15,2013-03-21 09:24:00,
2013-03-21 05:29:00,21.3,13.7,29.96,WNW,295,1.0,7.0,72,0.00,,,0.00,0,Wunderground v.1.15,2013-03-21 09:29:00,
2013-03-21 05:34:00,21.3,14.0,29.96,WNW,295,1.0,1.0,73,0.00,,,0.00,0,Wunderground v.1.15,2013-03-21 09:34:00,
2013-03-21 05:39:00,21.3,14.0,29.96,WNW,295,0.0,2.0,73,0.00,,,0.00,0,Wunderground v.1.15,2013-03-21 09:39:00,
2013-03-21 05:44:00,21.3,14.0,29.96,WNW,294,2.0,3.0,73,0.00,,,0.00,0,Wunderground v.1.15,2013-03-21 09:44:00,
2013-03-21 05:49:00,21.3,14.3,29.96,WNW,294,0.0,3.0,74,0.00,,,0.00,0,Wunderground v.1.15,2013-03-21 09:49:00,
2013-03-21 05:54:00,21.3,14.3,29.96,NW,304,2.0,5.0,74,0.00,,,0.00,0,Wunderground v.1.15,2013-03-21 09:54:00,
2013-03-21 05:59:00,21.1,14.4,29.96,WNW,296,3.0,5.0,75,0.00,,,0.00,0,Wunderground v.1.15,2013-03-21 09:59:00,
2013-03-21 06:04:00,20.7,13.4,29.96,NW,313,3.0,4.0,73,0.00,,,0.00,0,Wunderground v.1.15,2013-03-21 10:04:00,
2013-03-21 06:09:00,20.5,12.6,29.96,WNW,296,3.0,4.0,71,0.00,,,0.00,0,Wunderground v.1.15,2013-03-21 10:09:00,
2013-03-21 06:14:00,20.5,12.6,29.96,WNW,296,2.0,5.0,71,0.00,,,0.00,0,Wunderground v.1.15,2013-03-21 10:14:00,
2013-03-21 06:19:00,20.5,12.6,29.96,WNW,296,1.0,5.0,71,0.00,,,0.00,0,Wunderground v.1.15,2013-03-21 10:19:00,
2013-03-21 06:24:00,20.4,12.5,29.96,WNW,291,2.0,5.0,71,0.00,,,0.00,0,Wunderground v.1.15,2013-03-21 10:24:00,
2013-03-21 06:29:00,20.2,12.3,29.97,WNW,291,3.0,5.0,71,0.00,,,0.00,0,Wunderground v.1.15,2013-03-21 10:29:00,
2013-03-21 06:34:00,20.2,12.6,29.97,WNW,292,2.0,5.0,72,0.00,,,0.00,0,Wunderground v.1.15,2013-03-21 10:34:00,
2013-03-21 06:39:00,20.1,12.8,29.97,NW,315,4.0,5.0,73,0.00,,,0.00,0,Wunderground v.1.15,2013-03-21 10:39:00,
2013-03-21 06:44:00,20.0,13.3,29.97,NNW,340,2.0,7.0,75,0.00,,,0.00,0,Wunderground v.1.15,2013-03-21 10:44:00,
2013-03-21 06:49:00,19.8,13.5,29.97,NE,40,2.0,2.0,76,0.00,,,0.00,0,Wunderground v.1.15,2013-03-21 10:49:00,
2013-03-21 06:55:00,19.5,13.5,29.97,NNW,329,2.0,4.0,77,0.00,,,0.00,0,Wunderground v.1.15,2013-03-21 10:55:00,
2013-03-21 07:00:00,19.3,13.3,29.97,NNW,331,2.0,2.0,77,0.00,,,0.00,0,Wunderground v.1.15,2013-03-21 11:00:00,
2013-03-21 07:05:00,19.1,13.1,29.97,NNW,332,1.0,3.0,77,0.00,,,0.00,0,Wunderground v.1.15,2013-03-21 11:05:00,
2013-03-21 07:10:00,19.0,13.3,29.97,NNW,336,1.0,1.0,78,0.00,,,0.00,0,Wunderground v.1.15,2013-03-21 11:10:00,
2013-03-21 07:15:00,19.0,13.3,29.97,NNW,336,0.0,1.0,78,0.00,,,0.00,0,Wunderground v.1.15,2013-03-21 11:15:00,
2013-03-21 07:20:00,18.9,13.5,29.97,NNW,336,0.0,0.0,79,0.00,,,0.00,0,Wunderground v.1.15,2013-03-21 11:20:00,
2013-03-21 07:25:00,18.7,13.6,29.97,NNW,336,0.0,1.0,80,0.00,,,0.00,0,Wunderground v.1.15,2013-03-21 11:25:00,
2013-03-21 07:30:00,18.7,13.6,29.97,NNW,336,0.0,0.0,80,0.00,,,0.00,0,Wunderground v.1.15,2013-03-21 11:30:00,
2013-03-21 07:35:00,18.8,13.7,29.97,NNW,336,0.0,2.0,80,0.00,,,0.00,0,Wunderground v.1.15,2013-03-21 11:35:00,
2013-03-21 07:40:00,19.0,13.8,29.97,NNW,336,1.0,1.0,80,0.00,,,0.00,0,Wunderground v.1.15,2013-03-21 11:40:00,
2013-03-21 07:45:00,19.2,14.0,29.97,NNW,336,1.0,2.0,80,0.00,,,0.00,7,Wunderground v.1.15,2013-03-21 11:45:00,
2013-03-21 07:50:00,19.4,14.2,29.98,NNW,329,0.0,2.0,80,0.00,,,0.00,11,Wunderground v.1.15,2013-03-21 11:50:00,
2013-03-21 07:55:00,19.5,14.0,29.98,NW,318,1.0,3.0,79,0.00,,,0.00,12,Wunderground v.1.15,2013-03-21 11:55:00,
2013-03-21 08:00:00,19.7,14.2,29.98,NW,318,1.0,1.0,79,0.00,,,0.00,16,Wunderground v.1.15,2013-03-21 12:00:00,
2013-03-21 08:05:00,19.8,14.0,29.98,NW,318,0.0,2.0,78,0.00,,,0.00,18,Wunderground v.1.15,2013-03-21 12:05:00,
2013-03-21 08:11:00,19.9,14.1,29.98,NNW,331,0.0,1.0,78,0.00,,,0.00,25,Wunderground v.1.15,2013-03-21 12:11:00,
2013-03-21 08:16:00,20.0,14.2,29.98,NNW,329,2.0,5.0,78,0.00,,,0.00,32,Wunderground v.1.15,2013-03-21 12:16:00,
2013-03-21 08:21:00,20.0,14.2,29.98,NNW,340,0.0,3.0,78,0.00,,,0.00,33,Wunderground v.1.15,2013-03-21 12:21:00,
2013-03-21 08:26:00,20.0,14.2,29.98,NW,313,2.0,3.0,78,0.00,,,0.00,39,Wunderground v.1.15,2013-03-21 12:26:00,
2013-03-21 08:31:00,20.1,14.6,29.98,NW,315,0.0,2.0,79,0.00,,,0.00,46,Wunderground v.1.15,2013-03-21 12:31:00,
2013-03-21 08:36:00,20.2,14.4,29.99,NNW,342,0.0,3.0,78,0.00,,,0.00,56,Wunderground v.1.15,2013-03-21 12:36:00,
2013-03-21 08:41:00,20.3,14.5,29.99,WNW,297,1.0,5.0,78,0.00,,,0.00,63,Wunderground v.1.15,2013-03-21 12:41:00,
2013-03-21 08:46:00,20.6,14.8,29.99,NNW,327,2.0,5.0,78,0.00,,,0.00,77,Wunderground v.1.15,2013-03-21 12:46:00,
2013-03-21 08:52:00,20.6,14.5,29.99,WNW,298,2.0,3.0,77,0.00,,,0.00,93,Wunderground v.1.15,2013-03-21 12:52:00,
2013-03-21 08:57:00,20.4,14.0,29.99,NW,323,3.0,3.0,76,0.00,,,0.00,118,Wunderground v.1.15,2013-03-21 12:57:00,
2013-03-21 09:02:00,20.3,13.6,29.99,NNW,329,2.0,5.0,75,0.00,,,0.00,121,Wunderground v.1.15,2013-03-21 13:02:00,
2013-03-21 09:07:00,20.3,13.9,29.99,NNW,333,1.0,5.0,76,0.00,,,0.00,155,Wunderground v.1.15,2013-03-21 13:07:00,
2013-03-21 09:12:00,21.0,14.9,29.99,NNW,340,1.0,3.0,77,0.00,,,0.00,302,Wunderground v.1.15,2013-03-21 13:12:00,
2013-03-21 09:17:00,21.5,14.5,29.99,NW,316,4.0,4.0,74,0.00,,,0.00,315,Wunderground v.1.15,2013-03-21 13:17:00,
2013-03-21 09:22:00,21.7,13.7,30.00,NNW,329,5.0,5.0,71,0.00,,,0.00,313,Wunderground v.1.15,2013-03-21 13:22:00,
2013-03-21 09:27:00,21.9,13.3,30.00,NW,310,0.0,5.0,69,0.00,,,0.00,373,Wunderground v.1.15,2013-03-21 13:27:00,
2013-03-21 09:32:00,21.9,13.3,30.00,NW,318,2.0,5.0,69,0.00,,,0.00,146,Wunderground v.1.15,2013-03-21 13:32:00,
2013-03-21 09:37:00,22.3,13.3,30.00,NNW,327,3.0,5.0,68,0.00,,,0.00,424,Wunderground v.1.15,2013-03-21 13:37:00,
2013-03-21 09:42:00,22.2,12.6,30.01,WNW,298,4.0,5.0,66,0.00,,,0.00,445,Wunderground v.1.15,2013-03-21 13:42:00,
2013-03-21 09:47:00,22.2,12.6,30.01,NNW,346,3.0,6.0,66,0.00,,,0.00,193,Wunderground v.1.15,2013-03-21 13:47:00,
2013-03-21 09:52:00,21.8,12.5,30.01,NW,306,1.0,4.0,67,0.00,,,0.00,188,Wunderground v.1.15,2013-03-21 13:52:00,
2013-03-21 09:57:00,22.0,12.7,30.01,NW,323,2.0,4.0,67,0.00,,,0.00,156,Wunderground v.1.15,2013-03-21 13:57:00,
2013-03-21 10:02:00,21.8,12.2,30.01,NW,311,3.0,5.0,66,0.00,,,0.00,141,Wunderground v.1.15,2013-03-21 14:02:00,
2013-03-21 10:07:00,21.7,12.8,30.01,NNW,340,3.0,5.0,68,0.00,,,0.00,74,Wunderground v.1.15,2013-03-21 14:07:00,
2013-03-21 10:12:00,21.6,13.0,30.02,WNW,286,2.0,6.0,69,0.00,,,0.00,128,Wunderground v.1.15,2013-03-21 14:12:00,
2013-03-21 10:17:00,21.6,12.7,30.02,WNW,284,2.0,6.0,68,0.00,,,0.00,190,Wunderground v.1.15,2013-03-21 14:17:00,
2013-03-21 10:22:00,21.6,13.0,30.02,WNW,290,4.0,5.0,69,0.00,,,0.00,118,Wunderground v.1.15,2013-03-21 14:22:00,
2013-03-21 10:27:00,21.3,11.7,30.02,NW,304,2.0,6.0,66,0.00,,,0.00,95,Wunderground v.1.15,2013-03-21 14:27:00,
2013-03-21 10:32:00,22.3,12.7,30.02,WNW,292,1.0,5.0,66,0.00,,,0.00,582,Wunderground v.1.15,2013-03-21 14:32:00,
2013-03-21 10:37:00,23.3,12.9,30.02,NW,318,2.0,5.0,64,0.00,,,0.00,661,Wunderground v.1.15,2013-03-21 14:37:00,
2013-03-21 10:42:00,24.1,14.0,30.02,NNW,336,1.0,4.0,65,0.00,,,0.00,661,Wunderground v.1.15,2013-03-21 14:42:00,
2013-03-21 10:47:00,23.5,12.7,30.02,West,281,4.0,5.0,63,0.00,,,0.00,90,Wunderground v.1.15,2013-03-21 14:47:00,
2013-03-21 10:52:00,23.0,12.3,30.02,West,280,1.0,5.0,63,0.00,,,0.00,636,Wunderground v.1.15,2013-03-21 14:52:00,
2013-03-21 10:57:00,23.6,11.4,30.02,NNW,327,2.0,6.0,59,0.00,,,0.00,649,Wunderground v.1.15,2013-03-21 14:57:00,
2013-03-21 11:02:00,24.1,10.6,30.02,NW,308,1.0,4.0,56,0.00,,,0.00,682,Wunderground v.1.15,2013-03-21 15:02:00,
2013-03-21 11:07:00,25.1,12.8,30.02,WNW,291,5.0,6.0,59,0.00,,,0.00,752,Wunderground v.1.15,2013-03-21 15:07:00,
2013-03-21 11:12:00,25.0,11.9,30.02,NW,326,3.0,5.0,57,0.00,,,0.00,262,Wunderground v.1.15,2013-03-21 15:12:00,
2013-03-21 11:17:00,24.1,11.4,30.02,WNW,294,4.0,5.0,58,0.00,,,0.00,169,Wunderground v.1.15,2013-03-21 15:17:00,
2013-03-21 11:23:00,24.4,12.9,30.02,WNW,286,5.0,8.0,61,0.00,,,0.00,846,Wunderground v.1.15,2013-03-21 15:23:00,
2013-03-21 11:28:00,23.9,10.9,30.02,WNW,292,4.0,8.0,57,0.00,,,0.00,193,Wunderground v.1.15,2013-03-21 15:28:00,
2013-03-21 11:33:00,24.0,11.3,30.02,WNW,293,2.0,3.0,58,0.00,,,0.00,236,Wunderground v.1.15,2013-03-21 15:33:00,
2013-03-21 11:39:00,25.2,12.1,30.03,WNW,294,4.0,7.0,57,0.00,,,0.00,939,Wunderground v.1.15,2013-03-21 15:39:00,
2013-03-21 11:44:00,24.8,11.7,30.03,WNW,287,3.0,10.0,57,0.00,,,0.00,308,Wunderground v.1.15,2013-03-21 15:44:00,
2013-03-21 11:49:00,24.3,10.8,30.02,WNW,292,7.0,10.0,56,0.00,,,0.00,287,Wunderground v.1.15,2013-03-21 15:49:00,
2013-03-21 11:54:00,25.5,12.8,30.02,WNW,290,4.0,7.0,58,0.00,,,0.00,766,Wunderground v.1.15,2013-03-21 15:54:00,
2013-03-21 11:59:00,24.9,11.0,30.02,WNW,290,2.0,7.0,55,0.00,,,0.00,197,Wunderground v.1.15,2013-03-21 15:59:00,
2013-03-21 12:04:00,25.6,14.0,30.02,West,279,2.0,8.0,61,0.00,,,0.00,902,Wunderground v.1.15,2013-03-21 16:04:00,
2013-03-21 12:09:00,26.5,12.5,30.02,WNW,290,4.0,8.0,55,0.00,,,0.00,269,Wunderground v.1.15,2013-03-21 16:09:00,
2013-03-21 12:14:00,25.2,12.1,30.02,WSW,252,8.0,8.0,57,0.00,,,0.00,225,Wunderground v.1.15,2013-03-21 16:14:00,
2013-03-21 12:19:00,25.5,13.5,30.03,WNW,303,3.0,8.0,60,0.00,,,0.00,295,Wunderground v.1.15,2013-03-21 16:19:00,
2013-03-21 12:24:00,25.7,12.9,30.03,WNW,292,3.0,7.0,58,0.00,,,0.00,241,Wunderground v.1.15,2013-03-21 16:24:00,
2013-03-21 12:29:00,24.9,12.2,30.03,West,280,3.0,7.0,58,0.00,,,0.00,227,Wunderground v.1.15,2013-03-21 16:29:00,
2013-03-21 12:34:00,25.1,13.2,30.03,NW,323,3.0,4.0,60,0.00,,,0.00,260,Wunderground v.1.15,2013-03-21 16:34:00,
2013-03-21 12:39:00,25.9,13.1,30.03,NW,309,1.0,4.0,58,0.00,,,0.00,933,Wunderground v.1.15,2013-03-21 16:39:00,
2013-03-21 12:44:00,27.0,13.8,30.03,WNW,292,3.0,5.0,57,0.00,,,0.00,1037,Wunderground v.1.15,2013-03-21 16:44:00,
2013-03-21 12:49:00,26.1,13.3,30.03,West,261,9.0,12.0,58,0.00,,,0.00,262,Wunderground v.1.15,2013-03-21 16:49:00,
2013-03-21 12:54:00,26.5,14.5,30.03,West,277,3.0,10.0,60,0.00,,,0.00,1023,Wunderground v.1.15,2013-03-21 16:54:00,
2013-03-21 12:59:00,26.8,14.0,30.03,WSW,243,1.0,10.0,58,0.00,,,0.00,1055,Wunderground v.1.15,2013-03-21 16:59:00,
2013-03-21 13:04:00,27.3,14.5,30.03,WSW,251,9.0,10.0,58,0.00,,,0.00,353,Wunderground v.1.15,2013-03-21 17:04:00,
2013-03-21 13:09:00,26.8,14.0,30.03,West,263,1.0,10.0,58,0.00,,,0.00,360,Wunderground v.1.15,2013-03-21 17:09:00,
2013-03-21 13:14:00,26.7,13.9,30.04,WNW,294,3.0,7.0,58,0.00,,,0.00,345,Wunderground v.1.15,2013-03-21 17:14:00,
2013-03-21 13:19:00,26.7,13.5,30.03,WNW,294,0.0,7.0,57,0.00,,,0.00,1137,Wunderground v.1.15,2013-03-21 17:19:00,
2013-03-21 13:24:00,27.1,13.9,30.03,WNW,301,2.0,6.0,57,0.00,,,0.00,294,Wunderground v.1.15,2013-03-21 17:24:00,
2013-03-21 13:29:00,26.9,13.7,30.03,West,273,2.0,9.0,57,0.00,,,0.00,367,Wunderground v.1.15,2013-03-21 17:29:00,
2013-03-21 13:34:00,27.7,16.0,30.03,WNW,283,6.0,13.0,61,0.00,,,0.00,1049,Wunderground v.1.15,2013-03-21 17:34:00,
2013-03-21 13:39:00,28.3,15.4,30.03,WSW,252,12.0,15.0,58,0.00,,,0.00,483,Wunderground v.1.15,2013-03-21 17:39:00,
2013-03-21 13:44:00,27.6,14.3,30.03,West,271,7.0,13.0,57,0.00,,,0.00,281,Wunderground v.1.15,2013-03-21 17:44:00,
2013-03-21 13:49:00,26.8,13.6,30.03,WSW,245,3.0,13.0,57,0.00,,,0.00,315,Wunderground v.1.15,2013-03-21 17:49:00,
2013-03-21 13:54:00,26.8,14.4,30.03,WSW,249,8.0,13.0,59,0.00,,,0.00,264,Wunderground v.1.15,2013-03-21 17:54:00,
2013-03-21 13:59:00,26.7,13.9,30.03,WNW,288,1.0,6.0,58,0.00,,,0.00,188,Wunderground v.1.15,2013-03-21 17:59:00,
2013-03-21 14:05:00,26.5,14.1,30.03,WNW,290,2.0,6.0,59,0.00,,,0.00,257,Wunderground v.1.15,2013-03-21 18:05:00,
2013-03-21 14:10:00,27.0,14.6,30.03,West,265,3.0,3.0,59,0.00,,,0.00,376,Wunderground v.1.15,2013-03-21 18:10:00,
2013-03-21 14:15:00,27.1,14.7,30.03,West,274,3.0,10.0,59,0.00,,,0.00,271,Wunderground v.1.15,2013-03-21 18:15:00,
2013-03-21 14:20:00,27.2,15.5,30.03,WNW,286,5.0,5.0,61,0.00,,,0.00,248,Wunderground v.1.15,2013-03-21 18:20:00,
2013-03-21 14:25:00,27.0,15.7,30.03,West,265,4.0,14.0,62,0.00,,,0.00,279,Wunderground v.1.15,2013-03-21 18:25:00,
2013-03-21 14:30:00,27.0,15.7,30.03,WNW,297,2.0,5.0,62,0.00,,,0.00,350,Wunderground v.1.15,2013-03-21 18:30:00,
2013-03-21 14:35:00,27.4,16.8,30.03,West,274,2.0,10.0,64,0.00,,,0.00,381,Wunderground v.1.15,2013-03-21 18:35:00,
2013-03-21 14:40:00,27.6,16.6,30.03,West,272,4.0,6.0,63,0.00,,,0.00,541,Wunderground v.1.15,2013-03-21 18:40:00,
2013-03-21 14:45:00,27.8,16.5,30.03,WNW,288,3.0,6.0,62,0.00,,,0.00,605,Wunderground v.1.15,2013-03-21 18:45:00,
2013-03-21 14:50:00,29.0,16.8,30.03,WNW,298,1.0,3.0,60,0.00,,,0.00,504,Wunderground v.1.15,2013-03-21 18:50:00,
2013-03-21 14:55:00,29.5,16.5,30.02,WNW,301,3.0,5.0,58,0.00,,,0.00,663,Wunderground v.1.15,2013-03-21 18:55:00,
2013-03-21 15:00:00,29.6,17.4,30.02,WNW,298,3.0,3.0,60,0.00,,,0.00,675,Wunderground v.1.15,2013-03-21 19:00:00,
2013-03-21 15:05:00,29.1,16.5,30.03,West,273,2.0,5.0,59,0.00,,,0.00,272,Wunderground v.1.15,2013-03-21 19:05:00,
2013-03-21 15:10:00,28.8,17.4,30.02,West,263,6.0,7.0,62,0.00,,,0.00,510,Wunderground v.1.15,2013-03-21 19:10:00,
2013-03-21 15:15:00,29.1,17.7,30.02,West,274,3.0,10.0,62,0.00,,,0.00,162,Wunderground v.1.15,2013-03-21 19:15:00,
2013-03-21 15:20:00,28.5,17.9,30.02,West,280,2.0,10.0,64,0.00,,,0.00,283,Wunderground v.1.15,2013-03-21 19:20:00,
2013-03-21 15:25:00,29.2,19.2,30.02,WSW,248,13.0,13.0,66,0.00,,,0.00,585,Wunderground v.1.15,2013-03-21 19:25:00,
2013-03-21 15:30:00,29.1,18.1,30.02,WSW,238,9.0,10.0,63,0.00,,,0.00,415,Wunderground v.1.15,2013-03-21 19:30:00,
2013-03-21 15:35:00,29.0,18.7,30.02,West,265,4.0,13.0,65,0.00,,,0.00,257,Wunderground v.1.15,2013-03-21 19:35:00,
2013-03-21 15:40:00,28.5,18.2,30.02,WNW,284,1.0,5.0,65,0.00,,,0.00,415,Wunderground v.1.15,2013-03-21 19:40:00,
2013-03-21 15:45:00,28.7,18.8,30.02,WNW,284,2.0,10.0,66,0.00,,,0.00,250,Wunderground v.1.15,2013-03-21 19:45:00,
2013-03-21 15:50:00,28.5,17.5,30.02,WNW,285,4.0,5.0,63,0.00,,,0.00,236,Wunderground v.1.15,2013-03-21 19:50:00,
2013-03-21 15:55:00,28.3,17.7,30.02,West,278,1.0,14.0,64,0.00,,,0.00,255,Wunderground v.1.15,2013-03-21 19:55:00,
2013-03-21 16:00:00,28.6,17.6,30.02,West,272,3.0,5.0,63,0.00,,,0.00,322,Wunderground v.1.15,2013-03-21 20:00:00,
2013-03-21 16:05:00,28.9,17.1,30.02,West,263,9.0,9.0,61,0.00,,,0.00,265,Wunderground v.1.15,2013-03-21 20:05:00,
2013-03-21 16:10:00,29.0,17.2,30.02,West,271,1.0,4.0,61,0.00,,,0.00,200,Wunderground v.1.15,2013-03-21 20:10:00,
2013-03-21 16:15:00,28.8,16.6,30.02,WNW,285,3.0,9.0,60,0.00,,,0.00,171,Wunderground v.1.15,2013-03-21 20:15:00,
2013-03-21 16:20:00,28.5,16.7,30.02,WNW,295,3.0,3.0,61,0.00,,,0.00,176,Wunderground v.1.15,2013-03-21 20:20:00,
2013-03-21 16:25:00,28.5,17.5,30.02,WNW,292,2.0,6.0,63,0.00,,,0.00,209,Wunderground v.1.15,2013-03-21 20:25:00,
2013-03-21 16:30:00,28.7,17.7,30.02,WSW,245,6.0,8.0,63,0.00,,,0.00,258,Wunderground v.1.15,2013-03-21 20:30:00,
2013-03-21 16:35:00,29.1,17.3,30.02,WNW,288,0.0,12.0,61,0.00,,,0.00,276,Wunderground v.1.15,2013-03-21 20:35:00,
2013-03-21 16:40:00,29.1,17.3,30.02,WSW,258,7.0,14.0,61,0.00,,,0.00,258,Wunderground v.1.15,2013-03-21 20:40:00,
2013-03-21 16:45:00,28.8,16.3,30.02,West,278,3.0,14.0,59,0.00,,,0.00,281,Wunderground v.1.15,2013-03-21 20:45:00,
2013-03-21 16:50:00,28.9,16.4,30.02,WNW,296,1.0,4.0,59,0.00,,,0.00,262,Wunderground v.1.15,2013-03-21 20:50:00,
2013-03-21 16:55:00,29.2,16.6,30.02,WNW,285,2.0,5.0,59,0.00,,,0.00,364,Wunderground v.1.15,2013-03-21 20:55:00,
2013-03-21 17:00:00,30.0,17.4,30.02,West,276,2.0,12.0,59,0.00,,,0.00,364,Wunderground v.1.15,2013-03-21 21:00:00,
2013-03-21 17:05:00,30.0,17.0,30.02,WNW,290,2.0,12.0,58,0.00,,,0.00,378,Wunderground v.1.15,2013-03-21 21:05:00,
2013-03-21 17:10:00,30.0,16.6,30.02,West,279,1.0,3.0,57,0.00,,,0.00,243,Wunderground v.1.15,2013-03-21 21:10:00,
2013-03-21 17:16:00,29.5,16.1,30.02,WSW,255,3.0,6.0,57,0.00,,,0.00,204,Wunderground v.1.15,2013-03-21 21:16:00,
2013-03-21 17:21:00,29.5,16.5,30.02,West,281,0.0,3.0,58,0.00,,,0.00,128,Wunderground v.1.15,2013-03-21 21:21:00,
2013-03-21 17:26:00,29.5,16.5,30.02,West,270,1.0,7.0,58,0.00,,,0.00,100,Wunderground v.1.15,2013-03-21 21:26:00,
2013-03-21 17:31:00,29.4,16.4,30.02,West,281,1.0,2.0,58,0.00,,,0.00,93,Wunderground v.1.15,2013-03-21 21:31:00,
2013-03-21 17:36:00,29.3,16.7,30.02,West,262,1.0,4.0,59,0.00,,,0.00,77,Wunderground v.1.15,2013-03-21 21:36:00,
2013-03-21 17:41:00,29.3,16.7,30.02,West,273,1.0,3.0,59,0.00,,,0.00,81,Wunderground v.1.15,2013-03-21 21:41:00,
2013-03-21 17:46:00,29.4,16.8,30.02,WSW,254,5.0,12.0,59,0.00,,,0.00,100,Wunderground v.1.15,2013-03-21 21:46:00,
2013-03-21 17:51:00,29.4,16.8,30.02,West,270,2.0,4.0,59,0.00,,,0.00,125,Wunderground v.1.15,2013-03-21 21:51:00,
2013-03-21 17:56:00,29.7,17.5,30.02,West,271,3.0,6.0,60,0.00,,,0.00,123,Wunderground v.1.15,2013-03-21 21:56:00,
2013-03-21 18:01:00,29.6,17.0,30.02,WNW,290,1.0,3.0,59,0.00,,,0.00,102,Wunderground v.1.15,2013-03-21 22:01:00,
2013-03-21 18:06:00,29.6,17.4,30.02,WSW,251,9.0,11.0,60,0.00,,,0.00,91,Wunderground v.1.15,2013-03-21 22:06:00,
2013-03-21 18:12:00,29.5,17.7,30.02,West,263,3.0,8.0,61,0.00,,,0.00,86,Wunderground v.1.15,2013-03-21 22:12:00,
2013-03-21 18:17:00,29.4,17.2,30.02,WSW,257,6.0,8.0,60,0.00,,,0.00,72,Wunderground v.1.15,2013-03-21 22:17:00,
2013-03-21 18:22:00,29.4,17.2,30.03,West,261,2.0,4.0,60,0.00,,,0.00,77,Wunderground v.1.15,2013-03-21 22:22:00,
2013-03-21 18:27:00,29.5,16.9,30.03,WNW,289,1.0,4.0,59,0.00,,,0.00,79,Wunderground v.1.15,2013-03-21 22:27:00,
2013-03-21 18:32:00,29.6,17.0,30.03,WSW,246,7.0,7.0,59,0.00,,,0.00,70,Wunderground v.1.15,2013-03-21 22:32:00,
2013-03-21 18:37:00,29.5,17.3,30.03,WSW,254,3.0,13.0,60,0.00,,,0.00,65,Wunderground v.1.15,2013-03-21 22:37:00,
2013-03-21 18:42:00,29.4,17.2,30.02,West,265,5.0,9.0,60,0.00,,,0.00,54,Wunderground v.1.15,2013-03-21 22:42:00,
2013-03-21 18:47:00,29.3,17.1,30.02,West,276,2.0,9.0,60,0.00,,,0.00,54,Wunderground v.1.15,2013-03-21 22:47:00,
2013-03-21 18:52:00,29.2,16.2,30.03,WNW,284,4.0,4.0,58,0.00,,,0.00,46,Wunderground v.1.15,2013-03-21 22:52:00,
2013-03-21 18:57:00,29.2,16.6,30.03,West,269,2.0,6.0,59,0.00,,,0.00,33,Wunderground v.1.15,2013-03-21 22:57:00,
2013-03-21 19:02:00,29.1,16.9,30.03,West,270,2.0,7.0,60,0.00,,,0.00,32,Wunderground v.1.15,2013-03-21 23:02:00,
2013-03-21 19:07:00,29.0,16.4,30.03,West,268,4.0,8.0,59,0.00,,,0.00,25,Wunderground v.1.15,2013-03-21 23:07:00,
2013-03-21 19:12:00,28.9,16.7,30.03,West,259,6.0,6.0,60,0.00,,,0.00,21,Wunderground v.1.15,2013-03-21 23:12:00,
2013-03-21 19:17:00,28.8,17.0,30.03,WSW,256,0.0,9.0,61,0.00,,,0.00,18,Wunderground v.1.15,2013-03-21 23:17:00,
2013-03-21 19:22:00,28.7,17.3,30.03,WSW,257,0.0,5.0,62,0.00,,,0.00,18,Wunderground v.1.15,2013-03-21 23:22:00,
2013-03-21 19:27:00,28.7,16.9,30.03,West,269,2.0,7.0,61,0.00,,,0.00,12,Wunderground v.1.15,2013-03-21 23:27:00,
2013-03-21 19:32:00,28.7,17.3,30.03,WNW,290,2.0,7.0,62,0.00,,,0.00,9,Wunderground v.1.15,2013-03-21 23:32:00,
2013-03-21 19:37:00,28.6,16.8,30.03,WSW,251,2.0,7.0,61,0.00,,,0.00,7,Wunderground v.1.15,2013-03-21 23:37:00,
2013-03-21 19:42:00,28.5,16.7,30.03,West,266,2.0,8.0,61,0.00,,,0.00,5,Wunderground v.1.15,2013-03-21 23:42:00,
2013-03-21 19:47:00,28.5,16.7,30.03,WSW,256,1.0,8.0,61,0.00,,,0.00,0,Wunderground v.1.15,2013-03-21 23:47:00,
2013-03-21 19:52:00,28.3,16.9,30.03,WSW,258,2.0,8.0,62,0.00,,,0.00,0,Wunderground v.1.15,2013-03-21 23:52:00,
2013-03-21 19:57:00,28.1,17.1,30.03,West,268,6.0,10.0,63,0.00,,,0.00,0,Wunderground v.1.15,2013-03-21 23:57:00,
2013-03-21 20:02:00,27.9,17.3,30.03,West,259,4.0,6.0,64,0.00,,,0.00,0,Wunderground v.1.15,2013-03-22 00:02:00,
2013-03-21 20:07:00,27.6,17.4,30.03,WSW,252,7.0,7.0,65,0.00,,,0.00,0,Wunderground v.1.15,2013-03-22 00:07:00,
2013-03-21 20:12:00,27.4,17.5,30.03,WSW,249,4.0,5.0,66,0.00,,,0.00,0,Wunderground v.1.15,2013-03-22 00:12:00,
2013-03-21 20:18:00,27.3,17.4,30.03,West,260,2.0,6.0,66,0.00,,,0.00,0,Wunderground v.1.15,2013-03-22 00:18:00,
2013-03-21 20:23:00,27.0,17.5,30.03,West,260,2.0,4.0,67,0.00,,,0.00,0,Wunderground v.1.15,2013-03-22 00:23:00,
2013-03-21 20:28:00,26.6,17.8,30.03,West,260,0.0,4.0,69,0.00,,,0.00,0,Wunderground v.1.15,2013-03-22 00:28:00,
2013-03-21 20:33:00,26.3,17.5,30.03,West,260,1.0,2.0,69,0.00,,,0.00,0,Wunderground v.1.15,2013-03-22 00:33:00,
2013-03-21 20:39:00,26.1,17.6,30.03,West,260,0.0,2.0,70,0.00,,,0.00,0,Wunderground v.1.15,2013-03-22 00:39:00,
2013-03-21 20:44:00,26.0,17.6,30.03,West,260,1.0,3.0,70,0.00,,,0.00,0,Wunderground v.1.15,2013-03-22 00:44:00,
2013-03-21 20:49:00,26.0,17.6,30.03,West,260,2.0,3.0,70,0.00,,,0.00,0,Wunderground v.1.15,2013-03-22 00:49:00,
2013-03-21 20:54:00,25.9,17.5,30.03,West,260,0.0,1.0,70,0.00,,,0.00,0,Wunderground v.1.15,2013-03-22 00:54:00,
2013-03-21 20:59:00,25.8,17.4,30.03,West,260,1.0,2.0,70,0.00,,,0.00,0,Wunderground v.1.15,2013-03-22 00:59:00,
2013-03-21 21:04:00,25.7,17.6,30.04,West,260,3.0,3.0,71,0.00,,,0.00,0,Wunderground v.1.15,2013-03-22 01:04:00,
2013-03-21 21:09:00,25.7,17.3,30.04,West,260,1.0,4.0,70,0.00,,,0.00,0,Wunderground v.1.15,2013-03-22 01:09:00,
2013-03-21 21:14:00,25.7,17.3,30.04,West,260,2.0,3.0,70,0.00,,,0.00,0,Wunderground v.1.15,2013-03-22 01:14:00,
2013-03-21 21:19:00,25.7,17.3,30.04,West,260,1.0,3.0,70,0.00,,,0.00,0,Wunderground v.1.15,2013-03-22 01:19:00,
2013-03-21 21:24:00,25.5,17.4,30.04,West,260,0.0,2.0,71,0.00,,,0.00,0,Wunderground v.1.15,2013-03-22 01:24:00,
2013-03-21 21:29:00,25.4,17.3,30.05,West,260,2.0,3.0,71,0.00,,,0.00,0,Wunderground v.1.15,2013-03-22 01:29:00,
2013-03-21 21:34:00,25.6,17.2,30.05,West,260,1.0,4.0,70,0.00,,,0.00,0,Wunderground v.1.15,2013-03-22 01:34:00,
2013-03-21 21:39:00,25.6,17.2,30.05,West,260,1.0,4.0,70,0.00,,,0.00,0,Wunderground v.1.15,2013-03-22 01:39:00,
2013-03-21 21:44:00,25.5,17.1,30.05,West,260,0.0,1.0,70,0.00,,,0.00,0,Wunderground v.1.15,2013-03-22 01:44:00,
2013-03-21 21:49:00,25.2,17.1,30.05,West,260,0.0,1.0,71,0.00,,,0.00,0,Wunderground v.1.15,2013-03-22 01:49:00,
2013-03-21 21:54:00,24.8,17.1,30.05,West,260,0.0,0.0,72,0.00,,,0.00,0,Wunderground v.1.15,2013-03-22 01:54:00,
2013-03-21 21:59:00,24.7,17.3,30.05,West,260,0.0,1.0,73,0.00,,,0.00,0,Wunderground v.1.15,2013-03-22 01:59:00,
2013-03-21 22:04:00,24.5,17.4,30.05,West,260,1.0,1.0,74,0.00,,,0.00,0,Wunderground v.1.15,2013-03-22 02:04:00,
2013-03-21 22:09:00,24.5,17.7,30.05,West,260,2.0,2.0,75,0.00,,,0.00,0,Wunderground v.1.15,2013-03-22 02:09:00,
2013-03-21 22:14:00,24.8,17.7,30.05,West,260,1.0,2.0,74,0.00,,,0.00,0,Wunderground v.1.15,2013-03-22 02:14:00,
2013-03-21 22:19:00,24.8,17.4,30.05,West,260,1.0,2.0,73,0.00,,,0.00,0,Wunderground v.1.15,2013-03-22 02:19:00,
2013-03-21 22:24:00,24.6,17.5,30.05,West,260,1.0,3.0,74,0.00,,,0.00,0,Wunderground v.1.15,2013-03-22 02:24:00,
2013-03-21 22:29:00,24.6,17.2,30.06,West,260,0.0,3.0,73,0.00,,,0.00,0,Wunderground v.1.15,2013-03-22 02:29:00,
2013-03-21 22:35:00,24.7,17.3,30.06,West,260,1.0,2.0,73,0.00,,,0.00,0,Wunderground v.1.15,2013-03-22 02:35:00,
2013-03-21 22:40:00,24.6,17.2,30.06,West,260,2.0,2.0,73,0.00,,,0.00,0,Wunderground v.1.15,2013-03-22 02:40:00,
2013-03-21 22:45:00,24.7,17.3,30.06,West,260,3.0,4.0,73,0.00,,,0.00,0,Wunderground v.1.15,2013-03-22 02:45:00,
2013-03-21 22:50:00,24.8,17.4,30.06,West,260,2.0,2.0,73,0.00,,,0.00,0,Wunderground v.1.15,2013-03-22 02:50:00,
2013-03-21 22:55:00,24.8,17.1,30.06,West,260,2.0,4.0,72,0.00,,,0.00,0,Wunderground v.1.15,2013-03-22 02:55:00,
2013-03-21 23:00:00,24.7,17.3,30.06,West,260,2.0,3.0,73,0.00,,,0.00,0,Wunderground v.1.15,2013-03-22 03:00:00,
2013-03-21 23:05:00,24.7,17.3,30.06,West,260,1.0,4.0,73,0.00,,,0.00,0,Wunderground v.1.15,2013-03-22 03:05:00,
2013-03-21 23:10:00,24.6,17.2,30.06,West,260,3.0,3.0,73,0.00,,,0.00,0,Wunderground v.1.15,2013-03-22 03:10:00,
2013-03-21 23:15:00,24.5,17.4,30.06,West,260,2.0,3.0,74,0.00,,,0.00,0,Wunderground v.1.15,2013-03-22 03:15:00,
2013-03-21 23:20:00,24.5,17.4,30.06,West,260,2.0,2.0,74,0.00,,,0.00,0,Wunderground v.1.15,2013-03-22 03:20:00,
2013-03-21 23:25:00,24.4,17.3,30.06,West,260,2.0,3.0,74,0.00,,,0.00,0,Wunderground v.1.15,2013-03-22 03:25:00,
2013-03-21 23:30:00,24.4,17.3,30.06,West,260,0.0,2.0,74,0.00,,,0.00,0,Wunderground v.1.15,2013-03-22 03:30:00,
2013-03-21 23:35:00,24.3,17.2,30.05,West,260,2.0,3.0,74,0.00,,,0.00,0,Wunderground v.1.15,2013-03-22 03:35:00,
2013-03-21 23:41:00,24.1,17.3,30.05,West,260,4.0,4.0,75,0.00,,,0.00,0,Wunderground v.1.15,2013-03-22 03:41:00,
2013-03-21 23:46:00,24.1,17.3,30.05,West,260,2.0,4.0,75,0.00,,,0.00,0,Wunderground v.1.15,2013-03-22 03:46:00,
2013-03-21 23:51:00,24.1,17.3,30.05,West,260,2.0,4.0,75,0.00,,,0.00,0,Wunderground v.1.15,2013-03-22 03:51:00,
2013-03-21 23:56:00,24.0,17.2,30.05,West,260,3.0,4.0,75,0.00,,,0.00,0,Wunderground v.1.15,2013-03-22 03:56:00,